Tracking 20083 objects as of 7-Dec-2019
HD Live streaming from Space Station
objects crossing your sky now

FLOCK 1C 1

Track FLOCK 1C 1 now!
10-day predictions
FLOCK 1C 1 is classified as:


NORAD ID: 40027
Int'l Code: 2014-033T
Perigee: 597.0 km
Apogee: 613.4 km
Inclination: 97.9 °
Period: 96.6 minutes
Semi major axis: 6976 km
RCS: Unknown
Launch date: June 19, 2014
Source: United States (US)
Launch site: Orenburg, Russia (OREN)
aabbcc
Your satellite tracking list
Your tracking list is empty




NASA's NSSDC Master Catalog

Two Line Element Set (TLE):
1 40027U 14033T   19341.34939463  .00000510  00000-0  58888-4 0  9990
2 40027  97.9316 264.9288 0011701 207.4217 152.6384 14.89955831296944
Source of the keplerian elements: AFSPC